Skip Page Navigation
NASA JPL Caltech
NASA Logo - Jet Propulsion Laboratory + View the NASA Portal
+ Near-Earth Object (NEO) Program
Search JPL
JPL Home Earth Solar System Stars & Galaxies Technology
JPL Solar System Dynamics
BODIES ORBITS EPHEMERIDES TOOLS PHYSICAL DATA DISCOVERY FAQ SITE MAP
JPL Small-Body Database Browser
Search: [ help ]  
11378 Dauria (1998 SV60)
Classification: Main-belt Asteroid          SPK-ID: 2011378
Ephemeris | Orbit Diagram | Orbital Elements | Physical Parameters | Discovery Circumstances ]

[ show orbit diagram ]
Orbital Elements at Epoch 2457000.5 (2014-Dec-09.0) TDB
Reference: JPL 13 (heliocentric ecliptic J2000)
 Element Value Uncertainty (1-sigma)   Units 
e .1331862324393666 6.104e-08  
a 2.395429881996641 1.4231e-08 AU
q 2.076391600940831 1.4854e-07 AU
i 3.441108082664873 5.7986e-06 deg
node 143.3614705803416 0.00010393 deg
peri 254.5157249925363 0.00010675 deg
M 106.9660297761667 2.2628e-05 deg
tp 2456598.137964075476
(2013-Nov-01.63796408)
8.4514e-05 JED
period 1354.171349875632
3.71
1.2068e-05
3.304e-08
d
yr
n .2658452344550508 2.3691e-09 deg/d
Q 2.71446816305245 1.6126e-08 AU
  Orbit Determination Parameters
   # obs. used (total)      895  
   data-arc span      9954 days (27.25 yr)  
   first obs. used      1987-10-23  
   last obs. used      2015-01-23  
   planetary ephem.      DE431  
   SB-pert. ephem.      SB431-BIG16  
   condition code      0  
   fit RMS      .55894  
   data source      ORB  
   producer      Otto Matic  
   solution date      2015-Feb-04 13:32:00  

Additional Information
 Earth MOID = 1.08647 AU 
 T_jup = 3.515 
[ show covariance matrix ]

Ephemeris | Orbit Diagram | Orbital Elements | Physical Parameters | Discovery Circumstances ]

Physical Parameter Table
Parameter Symbol Value Units Sigma Reference Notes
absolute magnitude H 14.4 mag n/a MPO266019  

11378 Dauria           Discovered 1998 Sept. 17 by the Lowell Observatory Near-Earth Object Search at the Anderson Mesa Station.
Florida amateur astronomer Tippy D´Auria (b. 1935) is founder of the Winter Star Party. For many years he has worked to encourage both beginning and advanced sky-watchers in the hobby.
NOTE: some special characters may not display properly (any characters within {} are an attempt to place the proper accent above a character)
Reference: 20010109/MPCPages.arcLast Updated: 2009-05-11

Alternate Designations
 1998 SV60 = 1987 UU7 = 1997 LX9 
Ephemeris | Orbit Diagram | Orbital Elements | Physical Parameters | Discovery Circumstances ]
ABOUT SSD CREDITS/AWARDS PRIVACY/COPYRIGHT GLOSSARY LINKS
FirstGov 2015-Mar-06 12:37 UT
(server date/time)  
NASA Home Page
Site Manager:   Ryan S. Park
Webmaster  Alan B. Chamberlin